VTK609 UHMM-UIUU

Flight info

Callsign VTK609
Flight time 3h 49m
Altitude 36000
Route BANOT5D BANOT G369 ASKIB A803 NIBNA A801 KU W173 NERKA W268 RINOP A809 BULEL BULEL1P
Aircraft B738/M-SDE2E3FGHIRWXY/LB1

Departure

Time 2026-04-25 08:49
Airport Sokol Airport (UHMM)

Arrival

Time 2026-04-25 12:38
Airport Baikal International Airport (UIUU)
Time Latitude Longitude Altitude Speed Heading
2026-04-25 08:32 59.91376 150.72000 582 ft 0 kts
2026-04-25 08:39 59.91367 150.71999 582 ft 2 kts 357°
2026-04-25 08:40 59.91351 150.72002 582 ft 2 kts 348°
2026-04-25 08:40 59.91335 150.72011 582 ft 2 kts 332°
2026-04-25 08:40 59.91322 150.72031 582 ft 2 kts 307°
2026-04-25 08:40 59.91314 150.72059 582 ft 2 kts 284°
2026-04-25 08:41 59.91312 150.72083 582 ft 1 kts 274°
2026-04-25 08:41 59.91312 150.72085 582 ft 0 kts 274°
2026-04-25 08:43 59.91312 150.72084 582 ft 1 kts 274°
2026-04-25 08:43 59.91314 150.72043 582 ft 6 kts 273°
2026-04-25 08:44 59.91316 150.71932 582 ft 9 kts 272°
2026-04-25 08:44 59.91320 150.71800 582 ft 10 kts 273°
2026-04-25 08:44 59.91324 150.71669 582 ft 9 kts 273°
2026-04-25 08:44 59.91327 150.71540 582 ft 9 kts 273°
2026-04-25 08:45 59.91329 150.71440 582 ft 7 kts 269°
2026-04-25 08:45 59.91300 150.71369 582 ft 7 kts 198°
2026-04-25 08:45 59.91247 150.71358 582 ft 8 kts 184°
2026-04-25 08:45 59.91193 150.71353 583 ft 8 kts 182°
2026-04-25 08:46 59.91140 150.71345 584 ft 8 kts 196°
2026-04-25 08:46 59.91119 150.71240 584 ft 11 kts 271°
2026-04-25 08:46 59.91124 150.71058 584 ft 16 kts 273°
2026-04-25 08:46 59.91130 150.70819 583 ft 18 kts 273°
2026-04-25 08:47 59.91137 150.70560 580 ft 17 kts 273°
2026-04-25 08:47 59.91142 150.70368 580 ft 14 kts 273°
2026-04-25 08:47 59.91149 150.70227 580 ft 7 kts 290°
2026-04-25 08:47 59.91170 150.70153 580 ft 5 kts 277°
2026-04-25 08:48 59.91149 150.70145 580 ft 4 kts 134°
2026-04-25 08:48 59.91145 150.70215 580 ft 8 kts 94°
2026-04-25 08:48 59.91134 150.70656 581 ft 65 kts 93°
2026-04-25 08:48 59.91098 150.72006 580 ft 128 kts 93°
2026-04-25 08:49 59.91045 150.74111 701 ft 167 kts 92°
2026-04-25 08:49 59.90966 150.76403 1403 ft 169 kts 92°
2026-04-25 08:49 59.90893 150.78759 2255 ft 171 kts 90°
2026-04-25 08:49 59.90823 150.81216 2844 ft 186 kts 89°
2026-04-25 08:50 59.90752 150.83922 3196 ft 204 kts 89°
2026-04-25 08:50 59.90688 150.86811 3639 ft 216 kts 88°
2026-04-25 08:50 59.90616 150.89989 3873 ft 242 kts 89°
2026-04-25 08:50 59.90523 150.93399 4536 ft 249 kts 89°
2026-04-25 08:51 59.90420 150.96871 5397 ft 248 kts 90°
2026-04-25 08:51 59.90314 151.00300 6268 ft 250 kts 90°
2026-04-25 08:51 59.90149 151.03795 6931 ft 259 kts 100°
2026-04-25 08:51 59.89316 151.06986 7634 ft 271 kts 127°
2026-04-25 08:52 59.87782 151.09286 8313 ft 284 kts 153°
2026-04-25 08:52 59.85825 151.10111 9013 ft 295 kts 180°
2026-04-25 08:52 59.83802 151.09170 9732 ft 301 kts 207°
2026-04-25 08:52 59.82186 151.06624 10292 ft 305 kts 234°
2026-04-25 08:53 59.81205 151.02790 10485 ft 320 kts 258°
2026-04-25 08:53 59.80748 150.98336 10670 ft 338 kts 266°
2026-04-25 08:53 59.80465 150.93590 11009 ft 350 kts 268°
2026-04-25 08:53 59.80218 150.88730 11635 ft 355 kts 268°
2026-04-25 08:54 59.79961 150.83822 12390 ft 358 kts 268°
2026-04-25 08:54 59.79684 150.78929 13127 ft 362 kts 268°
2026-04-25 08:54 59.79380 150.73919 13847 ft 366 kts 268°
2026-04-25 08:54 59.79059 150.68870 14498 ft 370 kts 267°
2026-04-25 08:55 59.78724 150.63814 15160 ft 374 kts 266°
2026-04-25 08:55 59.78377 150.58655 15821 ft 378 kts 266°
2026-04-25 08:55 59.78021 150.53434 16464 ft 383 kts 266°
2026-04-25 08:55 59.77657 150.48142 17071 ft 388 kts 266°
2026-04-25 08:56 59.77290 150.42866 17679 ft 393 kts 265°
2026-04-25 08:56 59.76912 150.37474 18346 ft 396 kts 267°
2026-04-25 08:56 59.76530 150.32045 18962 ft 398 kts 267°
2026-04-25 08:56 59.76140 150.26539 19497 ft 402 kts 266°
2026-04-25 08:57 59.75748 150.21027 20029 ft 406 kts 266°
2026-04-25 08:57 59.75353 150.15521 20557 ft 410 kts 266°
2026-04-25 08:57 59.74948 150.09894 21093 ft 413 kts 266°
2026-04-25 08:57 59.74534 150.04197 21613 ft 417 kts 266°
2026-04-25 08:58 59.74116 149.98484 22121 ft 421 kts 265°
2026-04-25 08:58 59.73692 149.92711 22622 ft 424 kts 265°
2026-04-25 08:58 59.73266 149.86950 23115 ft 428 kts 265°
2026-04-25 08:58 59.72828 149.81085 23572 ft 431 kts 266°
2026-04-25 08:59 59.72382 149.75165 23984 ft 434 kts 266°
2026-04-25 08:59 59.71940 149.69291 24437 ft 435 kts 266°
2026-04-25 08:59 59.71493 149.63372 24868 ft 437 kts 266°
2026-04-25 08:59 59.71037 149.57391 25277 ft 439 kts 266°
2026-04-25 09:00 59.70576 149.51378 25677 ft 442 kts 266°
2026-04-25 09:00 59.70109 149.45321 26063 ft 444 kts 266°
2026-04-25 09:00 59.69637 149.39246 26455 ft 446 kts 266°
2026-04-25 09:00 59.69160 149.33146 26839 ft 449 kts 265°
2026-04-25 09:01 59.68684 149.27080 27198 ft 451 kts 265°
2026-04-25 09:01 59.68196 149.20916 27585 ft 453 kts 265°
2026-04-25 09:01 59.67708 149.14747 27939 ft 454 kts 266°
2026-04-25 09:01 59.67371 149.08603 28250 ft 453 kts 271°
2026-04-25 09:02 59.67205 149.02351 28603 ft 454 kts 273°
2026-04-25 09:02 59.67110 148.96075 28915 ft 456 kts 273°
2026-04-25 09:02 59.67026 148.89841 29219 ft 458 kts 273°
2026-04-25 09:02 59.66928 148.83502 29518 ft 460 kts 273°
2026-04-25 09:03 59.66808 148.77148 29860 ft 462 kts 272°
2026-04-25 09:03 59.66668 148.70789 30277 ft 460 kts 272°
2026-04-25 09:03 59.66515 148.64524 30605 ft 460 kts 272°
2026-04-25 09:03 59.66353 148.58161 30895 ft 461 kts 272°
2026-04-25 09:04 59.66186 148.51880 31202 ft 461 kts 272°
2026-04-25 09:04 59.66015 148.45553 31560 ft 460 kts 272°
2026-04-25 09:04 59.65841 148.39229 31870 ft 459 kts 272°
2026-04-25 09:04 59.65666 148.32979 32235 ft 458 kts 272°
2026-04-25 09:05 59.65487 148.26683 32589 ft 457 kts 272°
2026-04-25 09:05 59.65306 148.20388 32892 ft 458 kts 272°
2026-04-25 09:05 59.65184 148.16187 33074 ft 458 kts 272°
2026-04-25 09:05 59.64938 148.07841 33486 ft 457 kts 272°
2026-04-25 09:06 59.64748 148.01543 33785 ft 457 kts 271°
2026-04-25 09:06 59.64621 147.97381 33984 ft 457 kts 271°
2026-04-25 09:06 59.64364 147.89055 34277 ft 457 kts 271°
2026-04-25 09:06 59.64165 147.82764 34475 ft 458 kts 271°
2026-04-25 09:07 59.64032 147.78595 34622 ft 458 kts 271°
2026-04-25 09:07 59.63828 147.72299 34851 ft 458 kts 271°
2026-04-25 09:07 59.63621 147.66000 35035 ft 458 kts 271°
2026-04-25 09:07 59.63411 147.59695 35286 ft 457 kts 271°
2026-04-25 09:08 59.63201 147.53498 35533 ft 457 kts 271°
2026-04-25 09:08 59.62986 147.47208 35696 ft 458 kts 271°
2026-04-25 09:08 59.62766 147.40884 35861 ft 460 kts 271°
2026-04-25 09:08 59.62544 147.34561 36022 ft 461 kts 271°
2026-04-25 09:09 59.62320 147.28280 35978 ft 464 kts 270°
2026-04-25 09:09 59.61857 147.15608 36016 ft 462 kts 270°
2026-04-25 09:10 59.61382 147.03002 36019 ft 457 kts 270°
2026-04-25 09:10 59.60900 146.90453 36010 ft 455 kts 271°
2026-04-25 09:11 59.60165 146.71891 36023 ft 453 kts 271°
2026-04-25 09:11 59.59657 146.59439 36031 ft 453 kts 270°
2026-04-25 09:12 59.59141 146.47062 36031 ft 453 kts 270°
2026-04-25 09:12 59.58614 146.34714 36034 ft 454 kts 270°
2026-04-25 09:13 59.58072 146.22292 36037 ft 455 kts 270°
2026-04-25 09:13 59.57517 146.09850 36033 ft 456 kts 270°
2026-04-25 09:14 59.56946 145.97306 36045 ft 458 kts 270°
2026-04-25 09:14 59.56370 145.84862 36034 ft 458 kts 270°
2026-04-25 09:15 59.55818 145.72296 36037 ft 459 kts 270°
2026-04-25 09:15 59.55273 145.59799 36037 ft 459 kts 270°
2026-04-25 09:16 59.54710 145.47254 36029 ft 460 kts 270°
2026-04-25 09:16 59.54130 145.34672 36036 ft 459 kts 270°
2026-04-25 09:17 59.53244 145.15995 36049 ft 457 kts 270°
2026-04-25 09:18 59.52634 145.03451 36028 ft 457 kts 270°
2026-04-25 09:18 59.52020 144.91065 36039 ft 456 kts 270°
2026-04-25 09:19 59.51391 144.78607 36049 ft 455 kts 270°
2026-04-25 09:19 59.50755 144.66266 36035 ft 454 kts 270°
2026-04-25 09:20 59.50107 144.53891 36038 ft 453 kts 269°
2026-04-25 09:20 59.49451 144.41619 36048 ft 452 kts 269°
2026-04-25 09:21 59.48781 144.29272 36050 ft 452 kts 269°
2026-04-25 09:21 59.48104 144.17005 36053 ft 452 kts 269°
2026-04-25 09:22 59.47394 144.04789 36052 ft 452 kts 268°
2026-04-25 09:22 59.46545 143.92497 36053 ft 452 kts 267°
2026-04-25 09:23 59.45668 143.80222 36054 ft 452 kts 268°
2026-04-25 09:23 59.44800 143.68023 36055 ft 452 kts 268°
2026-04-25 09:24 59.43923 143.55735 36060 ft 453 kts 267°
2026-04-25 09:24 59.43039 143.43503 36060 ft 453 kts 267°
2026-04-25 09:25 59.42138 143.31209 36049 ft 453 kts 267°
2026-04-25 09:25 59.41234 143.19019 36031 ft 452 kts 266°
2026-04-25 09:26 59.39771 143.07014 36052 ft 462 kts 249°
2026-04-25 09:26 59.38124 143.01562 36051 ft 469 kts 236°
2026-04-25 09:26 59.35899 142.96825 36064 ft 474 kts 227°
2026-04-25 09:27 59.31058 142.88036 36052 ft 474 kts 226°
2026-04-25 09:27 59.26234 142.79282 36053 ft 474 kts 227°
2026-04-25 09:28 59.21414 142.70410 36054 ft 473 kts 227°
2026-04-25 09:28 59.16633 142.61586 36054 ft 473 kts 227°
2026-04-25 09:29 59.11871 142.52835 36063 ft 473 kts 227°
2026-04-25 09:29 59.07069 142.44053 36062 ft 473 kts 227°
2026-04-25 09:30 59.02280 142.35328 36047 ft 473 kts 227°
2026-04-25 09:30 58.97506 142.26633 36063 ft 472 kts 227°
2026-04-25 09:31 58.92721 142.17882 36068 ft 471 kts 227°
2026-04-25 09:31 58.87963 142.09205 36070 ft 471 kts 227°
2026-04-25 09:32 58.83171 142.00507 36074 ft 470 kts 227°
2026-04-25 09:32 58.78417 141.91919 36054 ft 470 kts 226°
2026-04-25 09:33 58.73629 141.83303 36066 ft 469 kts 226°
2026-04-25 09:33 58.68850 141.74735 36077 ft 468 kts 226°
2026-04-25 09:34 58.64111 141.66272 36075 ft 468 kts 226°
2026-04-25 09:34 58.59321 141.57753 36081 ft 467 kts 226°
2026-04-25 09:35 58.54570 141.49340 36069 ft 466 kts 226°
2026-04-25 09:35 58.49813 141.40943 36081 ft 466 kts 226°
2026-04-25 09:36 58.45031 141.32534 36083 ft 465 kts 225°
2026-04-25 09:36 58.40285 141.24220 36089 ft 465 kts 225°
2026-04-25 09:37 58.35506 141.15883 36109 ft 465 kts 225°
2026-04-25 09:37 58.30708 141.07585 36093 ft 464 kts 225°
2026-04-25 09:38 58.25953 140.99329 36092 ft 465 kts 225°
2026-04-25 09:38 58.21175 140.91072 36094 ft 465 kts 225°
2026-04-25 09:39 58.16391 140.82849 36082 ft 465 kts 225°
2026-04-25 09:39 58.11569 140.74597 36093 ft 466 kts 225°
2026-04-25 09:40 58.04367 140.62329 36087 ft 466 kts 225°
2026-04-25 09:40 57.99557 140.54173 36089 ft 467 kts 225°
2026-04-25 09:41 57.94726 140.46012 36088 ft 467 kts 224°
2026-04-25 09:41 57.89867 140.37837 36080 ft 467 kts 224°
2026-04-25 09:42 57.85008 140.29693 36091 ft 467 kts 224°
2026-04-25 09:42 57.80173 140.21618 36086 ft 467 kts 224°
2026-04-25 09:43 57.75335 140.13566 36080 ft 466 kts 224°
2026-04-25 09:43 57.70463 140.05489 36093 ft 465 kts 224°
2026-04-25 09:44 57.65640 139.97526 36081 ft 464 kts 223°
2026-04-25 09:44 57.60788 139.89543 36087 ft 463 kts 223°
2026-04-25 09:45 57.55952 139.81612 36100 ft 463 kts 223°
2026-04-25 09:45 57.51125 139.73730 36097 ft 462 kts 223°
2026-04-25 09:46 57.46297 139.65872 36099 ft 462 kts 223°
2026-04-25 09:46 57.41447 139.58019 36104 ft 461 kts 223°
2026-04-25 09:47 57.36596 139.50178 36101 ft 461 kts 223°
2026-04-25 09:47 57.31770 139.42404 36102 ft 461 kts 223°
2026-04-25 09:48 57.26935 139.34648 36104 ft 461 kts 223°
2026-04-25 09:48 57.22088 139.26903 36095 ft 461 kts 222°
2026-04-25 09:49 57.17245 139.19191 36109 ft 461 kts 222°
2026-04-25 09:49 57.12366 139.11449 36109 ft 460 kts 222°
2026-04-25 09:50 57.07518 139.03785 36111 ft 460 kts 222°
2026-04-25 09:50 57.02672 138.96151 36112 ft 460 kts 222°
2026-04-25 09:51 56.97817 138.88533 36114 ft 460 kts 221°
2026-04-25 09:51 56.93762 138.82187 36110 ft 460 kts 221°
2026-04-25 09:52 56.88902 138.74606 36110 ft 459 kts 221°
2026-04-25 09:52 56.84023 138.67022 36108 ft 459 kts 221°
2026-04-25 09:53 56.79163 138.59493 36111 ft 459 kts 221°
2026-04-25 09:53 56.74311 138.52008 36114 ft 458 kts 220°
2026-04-25 09:54 56.69416 138.44489 36113 ft 458 kts 220°
2026-04-25 09:54 56.64551 138.37044 36115 ft 458 kts 220°
2026-04-25 09:55 56.59701 138.29646 36114 ft 457 kts 220°
2026-04-25 09:55 56.54815 138.22214 36113 ft 457 kts 220°
2026-04-25 09:56 56.49953 138.14843 36106 ft 457 kts 220°
2026-04-25 09:56 56.45215 138.07213 36076 ft 457 kts 232°
2026-04-25 09:57 56.43586 138.02267 36119 ft 454 kts 249°
2026-04-25 09:57 56.42729 137.96850 36094 ft 453 kts 264°
2026-04-25 09:57 56.42350 137.85539 36103 ft 452 kts 268°
2026-04-25 09:58 56.42049 137.74143 36098 ft 453 kts 268°
2026-04-25 09:58 56.41694 137.62812 36083 ft 455 kts 267°
2026-04-25 09:59 56.41292 137.51344 36086 ft 456 kts 266°
2026-04-25 09:59 56.40873 137.39938 36086 ft 457 kts 266°
2026-04-25 10:00 56.40444 137.28522 36085 ft 458 kts 266°
2026-04-25 10:00 56.40003 137.17039 36061 ft 459 kts 266°
2026-04-25 10:01 56.39550 137.05513 36061 ft 459 kts 266°
2026-04-25 10:01 56.39089 136.94055 36062 ft 459 kts 266°
2026-04-25 10:02 56.38613 136.82497 36043 ft 460 kts 265°
2026-04-25 10:02 56.38130 136.71013 36039 ft 460 kts 265°
2026-04-25 10:03 56.37632 136.59448 36039 ft 460 kts 265°
2026-04-25 10:03 56.37128 136.47973 36024 ft 460 kts 265°
2026-04-25 10:04 56.36613 136.36505 36024 ft 460 kts 265°
2026-04-25 10:04 56.36084 136.24965 36026 ft 460 kts 265°
2026-04-25 10:05 56.35546 136.13481 36012 ft 459 kts 265°
2026-04-25 10:05 56.35001 136.02045 36014 ft 459 kts 265°
2026-04-25 10:06 56.34443 135.90570 36017 ft 458 kts 265°
2026-04-25 10:06 56.33877 135.79124 36016 ft 458 kts 264°
2026-04-25 10:07 56.33306 135.67730 36010 ft 458 kts 264°
2026-04-25 10:07 56.32729 135.56314 36011 ft 458 kts 264°
2026-04-25 10:08 56.32144 135.44891 36004 ft 458 kts 264°
2026-04-25 10:08 56.31545 135.33444 36005 ft 459 kts 264°
2026-04-25 10:09 56.30938 135.22014 36000 ft 459 kts 264°
2026-04-25 10:09 56.30318 135.10539 36006 ft 460 kts 263°
2026-04-25 10:10 56.29683 134.99012 35991 ft 461 kts 263°
2026-04-25 10:10 56.29043 134.87557 35988 ft 461 kts 263°
2026-04-25 10:11 56.28391 134.76045 35987 ft 462 kts 263°
2026-04-25 10:11 56.27730 134.64563 35977 ft 463 kts 263°
2026-04-25 10:12 56.27054 134.53005 35970 ft 463 kts 263°
2026-04-25 10:13 56.26021 134.35710 36042 ft 468 kts 263°
2026-04-25 10:13 56.25667 134.29881 36267 ft 467 kts 263°
2026-04-25 10:13 56.25316 134.24134 36559 ft 466 kts 263°
2026-04-25 10:13 56.24959 134.18332 36863 ft 464 kts 263°
2026-04-25 10:14 56.24604 134.12617 37119 ft 463 kts 263°
2026-04-25 10:14 56.24243 134.06843 37310 ft 464 kts 263°
2026-04-25 10:14 56.23877 134.01039 37431 ft 466 kts 263°
2026-04-25 10:14 56.23514 133.95323 37640 ft 465 kts 263°
2026-04-25 10:15 56.23143 133.89512 37890 ft 464 kts 263°
2026-04-25 10:15 56.22394 133.77918 37956 ft 467 kts 263°
2026-04-25 10:16 56.21638 133.66363 37936 ft 465 kts 263°
2026-04-25 10:16 56.20880 133.54888 37939 ft 462 kts 262°
2026-04-25 10:17 56.20118 133.43510 37950 ft 459 kts 262°
2026-04-25 10:17 56.19334 133.32174 37941 ft 458 kts 262°
2026-04-25 10:18 56.18516 133.20796 37957 ft 458 kts 262°
2026-04-25 10:18 56.17696 133.09472 37948 ft 459 kts 262°
2026-04-25 10:19 56.16866 132.98106 37960 ft 462 kts 262°
2026-04-25 10:19 56.16017 132.86622 37965 ft 464 kts 262°
2026-04-25 10:20 56.15166 132.75190 37959 ft 466 kts 262°
2026-04-25 10:20 56.14294 132.63596 37955 ft 468 kts 261°
2026-04-25 10:21 56.13413 132.52028 37951 ft 470 kts 261°
2026-04-25 10:21 56.12521 132.40453 37962 ft 471 kts 261°
2026-04-25 10:22 56.11609 132.28778 37959 ft 471 kts 261°
2026-04-25 10:22 56.10692 132.17184 37934 ft 470 kts 261°
2026-04-25 10:23 56.09767 132.05639 37937 ft 469 kts 261°
2026-04-25 10:23 56.08828 131.94047 37952 ft 468 kts 261°
2026-04-25 10:24 56.07887 131.82571 37931 ft 467 kts 261°
2026-04-25 10:24 56.06931 131.71050 37930 ft 466 kts 261°
2026-04-25 10:25 56.05972 131.59635 37933 ft 465 kts 260°
2026-04-25 10:25 56.04999 131.48171 37933 ft 465 kts 260°
2026-04-25 10:26 56.04016 131.36727 37928 ft 465 kts 260°
2026-04-25 10:26 56.03024 131.25306 37933 ft 465 kts 260°
2026-04-25 10:27 56.02024 131.13920 37919 ft 466 kts 260°
2026-04-25 10:27 56.01011 131.02508 37914 ft 466 kts 260°
2026-04-25 10:28 55.99983 130.91038 37921 ft 467 kts 260°
2026-04-25 10:28 55.98949 130.79618 37923 ft 467 kts 259°
2026-04-25 10:29 55.97892 130.68126 37917 ft 468 kts 259°
2026-04-25 10:29 55.96827 130.56692 37906 ft 469 kts 259°
2026-04-25 10:30 55.95739 130.45130 37910 ft 470 kts 259°
2026-04-25 10:30 55.94650 130.33656 37911 ft 470 kts 259°
2026-04-25 10:31 55.93550 130.22180 37901 ft 470 kts 259°
2026-04-25 10:31 55.92435 130.10670 37885 ft 470 kts 259°
2026-04-25 10:32 55.91316 129.99228 37891 ft 470 kts 259°
2026-04-25 10:32 55.90182 129.87757 37897 ft 469 kts 259°
2026-04-25 10:33 55.89034 129.76255 37877 ft 469 kts 259°
2026-04-25 10:33 55.87884 129.64842 37884 ft 469 kts 259°
2026-04-25 10:34 55.86720 129.53404 37885 ft 468 kts 258°
2026-04-25 10:34 55.85551 129.42035 37880 ft 468 kts 258°
2026-04-25 10:35 55.84370 129.30654 37875 ft 468 kts 258°
2026-04-25 10:35 55.83174 129.19237 37877 ft 468 kts 258°
2026-04-25 10:36 55.81978 129.07925 37877 ft 468 kts 258°
2026-04-25 10:36 55.80761 128.96516 37870 ft 468 kts 258°
2026-04-25 10:37 55.79545 128.85227 37874 ft 467 kts 258°
2026-04-25 10:37 55.78309 128.73858 37873 ft 468 kts 258°
2026-04-25 10:38 55.77064 128.62498 37872 ft 468 kts 258°
2026-04-25 10:38 55.75817 128.51215 37878 ft 467 kts 258°
2026-04-25 10:39 55.74550 128.39857 37888 ft 468 kts 258°
2026-04-25 10:39 55.73285 128.28553 37881 ft 468 kts 258°
2026-04-25 10:40 55.72225 128.19132 37864 ft 468 kts 257°
2026-04-25 10:40 55.70931 128.07793 37871 ft 468 kts 257°
2026-04-25 10:41 55.69633 127.96525 37868 ft 468 kts 257°
2026-04-25 10:41 55.68319 127.85193 37858 ft 468 kts 257°
2026-04-25 10:42 55.67005 127.73961 37869 ft 467 kts 257°
2026-04-25 10:42 55.65680 127.62720 37868 ft 467 kts 257°
2026-04-25 10:43 55.64336 127.51415 37857 ft 467 kts 257°
2026-04-25 10:43 55.62996 127.40234 37865 ft 467 kts 257°
2026-04-25 10:44 55.61638 127.29003 37860 ft 466 kts 257°
2026-04-25 10:44 55.60270 127.17779 37860 ft 466 kts 257°
2026-04-25 10:45 55.58890 127.06554 37863 ft 466 kts 257°
2026-04-25 10:45 55.57510 126.95415 37860 ft 466 kts 257°
2026-04-25 10:46 55.56119 126.84271 37860 ft 466 kts 257°
2026-04-25 10:46 55.54707 126.73055 37868 ft 465 kts 257°
2026-04-25 10:47 55.53297 126.61942 37869 ft 465 kts 256°
2026-04-25 10:47 55.51872 126.50794 37867 ft 465 kts 256°
2026-04-25 10:48 55.50440 126.39684 37871 ft 465 kts 256°
2026-04-25 10:48 55.48992 126.28535 37869 ft 465 kts 256°
2026-04-25 10:49 55.47543 126.17461 37873 ft 465 kts 256°
2026-04-25 10:49 55.46076 126.06340 37875 ft 465 kts 256°
2026-04-25 10:50 55.44608 125.95291 37872 ft 465 kts 256°
2026-04-25 10:50 55.43120 125.84170 37869 ft 464 kts 256°
2026-04-25 10:51 55.41637 125.73174 37882 ft 464 kts 256°
2026-04-25 10:51 55.40134 125.62094 37877 ft 464 kts 256°
2026-04-25 10:52 55.38626 125.51077 37877 ft 464 kts 256°
2026-04-25 10:52 55.37099 125.40021 37882 ft 464 kts 256°
2026-04-25 10:53 55.35575 125.29060 37886 ft 463 kts 256°
2026-04-25 10:53 55.34044 125.18110 37884 ft 463 kts 256°
2026-04-25 10:54 55.32497 125.07129 37891 ft 462 kts 256°
2026-04-25 10:54 55.30942 124.96167 37894 ft 462 kts 256°
2026-04-25 10:55 55.29384 124.85248 37892 ft 461 kts 256°
2026-04-25 10:55 55.27359 124.74577 37885 ft 460 kts 242°
2026-04-25 10:56 55.24294 124.64828 37903 ft 459 kts 240°
2026-04-25 10:56 55.21171 124.55045 37903 ft 459 kts 240°
2026-04-25 10:57 55.18100 124.45271 37922 ft 459 kts 241°
2026-04-25 10:57 55.15018 124.35419 37911 ft 460 kts 241°
2026-04-25 10:58 55.11962 124.25685 37926 ft 460 kts 241°
2026-04-25 10:58 55.08866 124.15879 37926 ft 460 kts 241°
2026-04-25 10:59 55.05769 124.06128 37934 ft 461 kts 240°
2026-04-25 10:59 55.02642 123.96330 37942 ft 461 kts 241°
2026-04-25 11:00 54.99526 123.86594 37936 ft 462 kts 241°
2026-04-25 11:00 54.96381 123.76805 37942 ft 462 kts 241°
2026-04-25 11:01 54.93251 123.67101 37957 ft 462 kts 240°
2026-04-25 11:01 54.90079 123.57310 37948 ft 462 kts 240°
2026-04-25 11:02 54.86931 123.47627 37959 ft 462 kts 241°
2026-04-25 11:02 54.83757 123.37905 37953 ft 462 kts 241°
2026-04-25 11:03 54.80573 123.28191 37961 ft 462 kts 241°
2026-04-25 11:03 54.77399 123.18549 37953 ft 462 kts 241°
2026-04-25 11:04 54.74219 123.08922 37967 ft 462 kts 240°
2026-04-25 11:04 54.71029 122.99302 37965 ft 461 kts 242°
2026-04-25 11:05 54.67812 122.89641 37976 ft 461 kts 240°
2026-04-25 11:05 54.64621 122.80074 37971 ft 462 kts 240°
2026-04-25 11:06 54.61409 122.70498 37978 ft 462 kts 240°
2026-04-25 11:06 54.58176 122.60898 37978 ft 463 kts 240°
2026-04-25 11:07 54.54938 122.51334 37988 ft 463 kts 241°
2026-04-25 11:07 54.51830 122.41671 37979 ft 463 kts 242°
2026-04-25 11:08 54.48754 122.31892 37980 ft 463 kts 242°
2026-04-25 11:08 54.45668 122.22202 37988 ft 463 kts 242°
2026-04-25 11:09 54.42574 122.12566 37994 ft 462 kts 242°
2026-04-25 11:09 54.39504 122.02819 37980 ft 462 kts 244°
2026-04-25 11:10 54.36635 121.92957 37986 ft 461 kts 245°
2026-04-25 11:10 54.33799 121.83126 37997 ft 461 kts 244°
2026-04-25 11:11 54.30922 121.73302 37994 ft 460 kts 244°
2026-04-25 11:11 54.28031 121.63540 37998 ft 460 kts 244°
2026-04-25 11:12 54.25136 121.53814 37994 ft 461 kts 244°
2026-04-25 11:12 54.22221 121.44055 38000 ft 460 kts 244°
2026-04-25 11:13 54.19308 121.34350 38000 ft 460 kts 244°
2026-04-25 11:13 54.16372 121.24604 38001 ft 460 kts 244°
2026-04-25 11:14 54.13444 121.14922 38000 ft 460 kts 244°
2026-04-25 11:14 54.10494 121.05209 37997 ft 460 kts 244°
2026-04-25 11:15 54.07554 120.95566 38004 ft 459 kts 244°
2026-04-25 11:15 54.04618 120.85975 38011 ft 458 kts 244°
2026-04-25 11:16 54.00175 120.71533 38003 ft 458 kts 244°
2026-04-25 11:16 53.97227 120.62001 38011 ft 457 kts 244°
2026-04-25 11:17 53.94253 120.52421 38003 ft 457 kts 244°
2026-04-25 11:17 53.91281 120.42885 38007 ft 457 kts 244°
2026-04-25 11:18 53.88310 120.33390 38008 ft 457 kts 244°
2026-04-25 11:18 53.85314 120.23852 38016 ft 457 kts 243°
2026-04-25 11:19 53.82329 120.14388 38013 ft 457 kts 243°
2026-04-25 11:19 53.79313 120.04861 38003 ft 457 kts 244°
2026-04-25 11:20 53.76318 119.95436 38013 ft 457 kts 244°
2026-04-25 11:20 53.73302 119.85979 38017 ft 457 kts 244°
2026-04-25 11:21 53.70270 119.76510 38022 ft 458 kts 243°
2026-04-25 11:21 53.67962 119.66563 38020 ft 453 kts 261°
2026-04-25 11:22 53.67099 119.57860 38023 ft 452 kts 263°
2026-04-25 11:22 53.65978 119.45634 38026 ft 452 kts 263°
2026-04-25 11:23 53.64972 119.35155 38025 ft 453 kts 263°
2026-04-25 11:23 53.63935 119.24715 38028 ft 453 kts 263°
2026-04-25 11:24 53.62881 119.14292 38028 ft 452 kts 262°
2026-04-25 11:24 53.61811 119.03819 38024 ft 452 kts 262°
2026-04-25 11:25 53.60741 118.93420 38038 ft 452 kts 262°
2026-04-25 11:25 53.59663 118.83028 38032 ft 451 kts 262°
2026-04-25 11:26 53.58567 118.72563 38022 ft 451 kts 262°
2026-04-25 11:26 53.57476 118.62231 38035 ft 450 kts 262°
2026-04-25 11:27 53.56375 118.51895 38037 ft 450 kts 262°
2026-04-25 11:27 53.55630 118.44956 38037 ft 450 kts 262°
2026-04-25 11:28 53.54327 118.32907 38049 ft 449 kts 262°
2026-04-25 11:28 53.53204 118.22617 38050 ft 449 kts 262°
2026-04-25 11:29 53.52067 118.12277 38051 ft 449 kts 262°
2026-04-25 11:29 53.50922 118.01964 38035 ft 449 kts 262°
2026-04-25 11:30 53.49766 117.91635 38032 ft 449 kts 262°
2026-04-25 11:30 53.48606 117.81351 38053 ft 449 kts 262°
2026-04-25 11:31 53.47431 117.71024 38056 ft 450 kts 262°
2026-04-25 11:31 53.46251 117.60728 38053 ft 450 kts 262°
2026-04-25 11:32 53.45066 117.50477 38047 ft 450 kts 262°
2026-04-25 11:32 53.43862 117.40138 38060 ft 450 kts 262°
2026-04-25 11:33 53.42648 117.29803 38049 ft 450 kts 262°
2026-04-25 11:33 53.41436 117.19563 38048 ft 450 kts 262°
2026-04-25 11:34 53.40208 117.09265 38060 ft 450 kts 261°
2026-04-25 11:34 53.38972 116.98980 38057 ft 450 kts 261°
2026-04-25 11:35 53.37724 116.88663 38055 ft 450 kts 261°
2026-04-25 11:35 53.36463 116.78455 38065 ft 451 kts 261°
2026-04-25 11:36 53.35060 116.68173 38059 ft 452 kts 259°
2026-04-25 11:36 53.33626 116.57973 38053 ft 452 kts 260°
2026-04-25 11:37 53.32186 116.47707 38047 ft 452 kts 260°
2026-04-25 11:37 53.30757 116.37512 38069 ft 451 kts 260°
2026-04-25 11:38 53.29320 116.27306 38074 ft 451 kts 260°
2026-04-25 11:38 53.27884 116.17170 38070 ft 450 kts 260°
2026-04-25 11:39 53.26431 116.06980 38072 ft 449 kts 260°
2026-04-25 11:39 53.24973 115.96831 38070 ft 448 kts 259°
2026-04-25 11:40 53.23518 115.86762 38076 ft 448 kts 259°
2026-04-25 11:40 53.22046 115.76646 38075 ft 448 kts 259°
2026-04-25 11:41 53.20574 115.66595 38077 ft 447 kts 259°
2026-04-25 11:41 53.19085 115.56491 38072 ft 447 kts 259°
2026-04-25 11:42 53.17598 115.46464 38072 ft 447 kts 259°
2026-04-25 11:42 53.16098 115.36416 38074 ft 447 kts 259°
2026-04-25 11:43 53.14586 115.26354 38047 ft 447 kts 259°
2026-04-25 11:43 53.13073 115.16346 38067 ft 446 kts 259°
2026-04-25 11:44 53.11551 115.06336 38081 ft 446 kts 259°
2026-04-25 11:44 53.10013 114.96288 38065 ft 447 kts 259°
2026-04-25 11:45 53.08477 114.86315 38060 ft 447 kts 259°
2026-04-25 11:45 53.06920 114.76266 38064 ft 447 kts 259°
2026-04-25 11:46 53.05357 114.66244 38060 ft 448 kts 259°
2026-04-25 11:46 53.03792 114.56268 38053 ft 448 kts 259°
2026-04-25 11:47 53.02211 114.46252 38042 ft 447 kts 259°
2026-04-25 11:47 53.00631 114.36303 38052 ft 447 kts 259°
2026-04-25 11:48 52.99036 114.26314 38045 ft 446 kts 259°
2026-04-25 11:48 52.97442 114.16396 38045 ft 445 kts 259°
2026-04-25 11:49 52.95835 114.06454 38054 ft 445 kts 259°
2026-04-25 11:49 52.94228 113.96569 38048 ft 445 kts 258°
2026-04-25 11:50 52.92613 113.86691 38036 ft 444 kts 258°
2026-04-25 11:50 52.90990 113.76825 38044 ft 444 kts 258°
2026-04-25 11:51 52.89353 113.66934 38040 ft 444 kts 258°
2026-04-25 11:51 52.87716 113.57095 38031 ft 443 kts 258°
2026-04-25 11:52 52.86073 113.47272 38035 ft 443 kts 258°
2026-04-25 11:52 52.84420 113.37450 38040 ft 443 kts 258°
2026-04-25 11:53 52.82762 113.27653 38025 ft 443 kts 258°
2026-04-25 11:53 52.81086 113.17810 38046 ft 443 kts 258°
2026-04-25 11:54 52.79409 113.08012 38040 ft 444 kts 258°
2026-04-25 11:55 52.76879 112.93329 38048 ft 444 kts 258°
2026-04-25 11:55 52.75182 112.83551 38050 ft 444 kts 258°
2026-04-25 11:56 52.73472 112.73757 38062 ft 444 kts 258°
2026-04-25 11:56 52.71756 112.63974 38048 ft 445 kts 258°
2026-04-25 11:57 52.70024 112.54159 38060 ft 445 kts 258°
2026-04-25 11:57 52.68294 112.44406 38069 ft 445 kts 258°
2026-04-25 11:58 52.66554 112.34652 38081 ft 445 kts 257°
2026-04-25 11:58 52.64791 112.24816 38074 ft 445 kts 257°
2026-04-25 11:59 52.63037 112.15090 38079 ft 445 kts 257°
2026-04-25 11:59 52.61264 112.05308 38088 ft 445 kts 257°
2026-04-25 12:00 52.58604 111.90731 38098 ft 444 kts 257°
2026-04-25 12:01 52.55921 111.76136 38100 ft 443 kts 257°
2026-04-25 12:01 52.54137 111.66497 38095 ft 443 kts 257°
2026-04-25 12:02 52.51430 111.51966 38089 ft 442 kts 257°
2026-04-25 12:02 52.49592 111.42358 38099 ft 442 kts 256°
2026-04-25 12:03 52.47740 111.32791 38114 ft 441 kts 256°
2026-04-25 12:03 52.45884 111.23234 38114 ft 440 kts 256°
2026-04-25 12:04 52.44022 111.13669 38113 ft 440 kts 256°
2026-04-25 12:04 52.42159 111.04145 38124 ft 440 kts 256°
2026-04-25 12:05 52.40289 110.94626 38123 ft 439 kts 256°
2026-04-25 12:05 52.38402 110.85074 38104 ft 439 kts 256°
2026-04-25 12:06 52.36518 110.75582 38109 ft 439 kts 256°
2026-04-25 12:06 52.34633 110.66130 38122 ft 438 kts 256°
2026-04-25 12:07 52.32745 110.56711 38133 ft 438 kts 256°
2026-04-25 12:07 52.30833 110.47215 38133 ft 438 kts 256°
2026-04-25 12:08 52.28931 110.37815 38134 ft 437 kts 256°
2026-04-25 12:08 52.27005 110.28343 38140 ft 437 kts 256°
2026-04-25 12:09 52.25090 110.18969 38138 ft 438 kts 256°
2026-04-25 12:09 52.23158 110.09558 38141 ft 439 kts 256°
2026-04-25 12:10 52.21203 110.00078 38144 ft 439 kts 256°
2026-04-25 12:10 52.19261 109.90700 38153 ft 439 kts 256°
2026-04-25 12:11 52.17290 109.81224 38149 ft 440 kts 255°
2026-04-25 12:11 52.15627 109.71719 37951 ft 440 kts 261°
2026-04-25 12:12 52.14953 109.66822 37454 ft 441 kts 262°
2026-04-25 12:12 52.14520 109.63597 37056 ft 439 kts 262°
2026-04-25 12:12 52.13646 109.57144 36303 ft 437 kts 261°
2026-04-25 12:12 52.12975 109.52315 35682 ft 438 kts 261°
2026-04-25 12:13 52.12285 109.47442 34995 ft 439 kts 261°
2026-04-25 12:13 52.11597 109.42648 34342 ft 440 kts 261°
2026-04-25 12:13 52.10895 109.37801 33788 ft 438 kts 261°
2026-04-25 12:13 52.10195 109.32990 33234 ft 434 kts 261°
2026-04-25 12:14 52.09501 109.28231 32721 ft 429 kts 261°
2026-04-25 12:14 52.09044 109.25099 32407 ft 426 kts 261°
2026-04-25 12:14 52.08363 109.20435 31932 ft 422 kts 261°
2026-04-25 12:14 52.07685 109.15812 31468 ft 418 kts 261°
2026-04-25 12:15 52.07012 109.11244 31009 ft 414 kts 261°
2026-04-25 12:15 52.06334 109.06707 30531 ft 411 kts 260°
2026-04-25 12:15 52.05655 109.02211 30035 ft 407 kts 260°
2026-04-25 12:15 52.04980 108.97761 29499 ft 403 kts 260°
2026-04-25 12:16 52.04322 108.93426 29036 ft 397 kts 261°
2026-04-25 12:16 52.03663 108.89088 28583 ft 392 kts 261°
2026-04-25 12:16 52.03012 108.84817 28115 ft 387 kts 261°
2026-04-25 12:16 52.02368 108.80587 27647 ft 382 kts 261°
2026-04-25 12:17 52.01738 108.76467 27194 ft 378 kts 261°
2026-04-25 12:17 52.01106 108.72337 26739 ft 375 kts 261°
2026-04-25 12:17 52.00479 108.68244 26289 ft 371 kts 261°
2026-04-25 12:17 51.99858 108.64197 25832 ft 368 kts 261°
2026-04-25 12:18 51.99239 108.60194 25404 ft 365 kts 261°
2026-04-25 12:18 51.98622 108.56215 24970 ft 362 kts 261°
2026-04-25 12:18 51.98004 108.52245 24417 ft 363 kts 261°
2026-04-25 12:18 51.97384 108.48286 23983 ft 361 kts 261°
2026-04-25 12:19 51.96359 108.41766 23177 ft 357 kts 261°
2026-04-25 12:19 51.95549 108.36636 22569 ft 352 kts 262°
2026-04-25 12:19 51.94944 108.32810 22184 ft 347 kts 262°
2026-04-25 12:20 51.94349 108.29045 21775 ft 343 kts 262°
2026-04-25 12:20 51.93757 108.25312 21363 ft 340 kts 262°
2026-04-25 12:20 51.93170 108.21604 20953 ft 337 kts 262°
2026-04-25 12:20 51.92587 108.17939 20541 ft 335 kts 262°
2026-04-25 12:21 51.92006 108.14297 20145 ft 332 kts 262°
2026-04-25 12:21 51.91430 108.10687 19752 ft 330 kts 263°
2026-04-25 12:21 51.91234 108.07106 19348 ft 319 kts 281°
2026-04-25 12:21 51.91653 108.03604 18977 ft 315 kts 289°
2026-04-25 12:22 51.92236 108.00189 18570 ft 314 kts 290°
2026-04-25 12:22 51.92839 107.96803 18130 ft 311 kts 290°
2026-04-25 12:22 51.93435 107.93435 17697 ft 309 kts 290°
2026-04-25 12:22 51.94015 107.90108 17302 ft 305 kts 290°
2026-04-25 12:23 51.94581 107.86806 16899 ft 303 kts 290°
2026-04-25 12:23 51.95132 107.83569 16517 ft 299 kts 290°
2026-04-25 12:23 51.95678 107.80335 16127 ft 296 kts 290°
2026-04-25 12:23 51.96219 107.77120 15726 ft 294 kts 290°
2026-04-25 12:24 51.96759 107.73911 15357 ft 294 kts 290°
2026-04-25 12:24 51.97297 107.70698 14973 ft 296 kts 290°
2026-04-25 12:24 51.97836 107.67467 14592 ft 296 kts 290°
2026-04-25 12:24 51.98358 107.64245 14215 ft 296 kts 287°
2026-04-25 12:25 51.98479 107.60866 13705 ft 306 kts 273°
2026-04-25 12:25 51.98317 107.57424 13251 ft 305 kts 272°
2026-04-25 12:25 51.98144 107.54002 12866 ft 303 kts 272°
2026-04-25 12:25 51.97984 107.50647 12490 ft 301 kts 272°
2026-04-25 12:26 51.97829 107.47273 12108 ft 298 kts 272°
2026-04-25 12:26 51.97680 107.43938 11755 ft 294 kts 272°
2026-04-25 12:26 51.97538 107.40636 11397 ft 292 kts 272°
2026-04-25 12:26 51.97399 107.37353 11031 ft 290 kts 272°
2026-04-25 12:27 51.97256 107.34093 10665 ft 290 kts 272°
2026-04-25 12:27 51.96986 107.30864 10536 ft 293 kts 258°
2026-04-25 12:27 51.96058 107.27915 10456 ft 298 kts 246°
2026-04-25 12:27 51.95023 107.25050 10247 ft 290 kts 248°
2026-04-25 12:28 51.94023 107.22292 10211 ft 280 kts 247°
2026-04-25 12:28 51.93029 107.19597 9986 ft 277 kts 247°
2026-04-25 12:28 51.92088 107.16898 9706 ft 273 kts 248°
2026-04-25 12:28 51.91109 107.14232 9305 ft 275 kts 246°
2026-04-25 12:29 51.90134 107.11581 8803 ft 274 kts 250°
2026-04-25 12:29 51.89266 107.08990 8624 ft 265 kts 245°
2026-04-25 12:29 51.88282 107.06542 8483 ft 257 kts 245°
2026-04-25 12:29 51.87374 107.04130 8269 ft 245 kts 245°
2026-04-25 12:30 51.86508 107.01821 8006 ft 235 kts 247°
2026-04-25 12:30 51.85614 106.99655 7760 ft 233 kts 232°
2026-04-25 12:30 51.84149 106.98535 7559 ft 242 kts 188°
2026-04-25 12:30 51.82468 106.98791 7412 ft 241 kts 172°
2026-04-25 12:31 51.80860 106.99356 7232 ft 232 kts 170°
2026-04-25 12:31 51.79318 106.99954 7012 ft 225 kts 170°
2026-04-25 12:31 51.77838 107.00714 6758 ft 224 kts 152°
2026-04-25 12:31 51.76726 107.02435 6508 ft 221 kts 122°
2026-04-25 12:32 51.76139 107.04637 6212 ft 210 kts 97°
2026-04-25 12:32 51.76190 107.06809 6136 ft 186 kts 71°
2026-04-25 12:32 51.76459 107.08874 5881 ft 186 kts 73°
2026-04-25 12:32 51.76716 107.10925 5620 ft 186 kts 73°
2026-04-25 12:33 51.76969 107.12933 5382 ft 178 kts 74°
2026-04-25 12:33 51.77203 107.14789 5164 ft 160 kts 73°
2026-04-25 12:33 51.77420 107.16489 4920 ft 149 kts 73°
2026-04-25 12:33 51.77626 107.18090 4718 ft 145 kts 72°
2026-04-25 12:34 51.77833 107.19695 4505 ft 148 kts 74°
2026-04-25 12:34 51.78043 107.21330 4302 ft 146 kts 75°
2026-04-25 12:34 51.78240 107.22905 4113 ft 144 kts 75°
2026-04-25 12:34 51.78363 107.23971 4030 ft 141 kts 75°
2026-04-25 12:35 51.78615 107.26016 3820 ft 140 kts 73°
2026-04-25 12:35 51.78831 107.27528 3696 ft 136 kts 73°
2026-04-25 12:35 51.79015 107.29049 3449 ft 139 kts 76°
2026-04-25 12:35 51.79205 107.30563 3247 ft 136 kts 75°
2026-04-25 12:36 51.79414 107.32063 2997 ft 137 kts 74°
2026-04-25 12:36 51.79618 107.33552 2817 ft 134 kts 75°
2026-04-25 12:36 51.79809 107.35039 2578 ft 136 kts 77°
2026-04-25 12:36 51.80010 107.36520 2410 ft 134 kts 80°
2026-04-25 12:37 51.80175 107.38013 2207 ft 135 kts 78°
2026-04-25 12:37 51.80386 107.39497 1984 ft 138 kts 78°
2026-04-25 12:37 51.80582 107.41007 1792 ft 137 kts 79°
2026-04-25 12:37 51.80777 107.42478 1687 ft 126 kts 79°
2026-04-25 12:38 51.80915 107.43556 1686 ft 67 kts 78°
2026-04-25 12:38 51.80974 107.44008 1685 ft 21 kts 78°
2026-04-25 12:38 51.80989 107.44125 1687 ft 7 kts 78°
2026-04-25 12:38 51.80981 107.44194 1691 ft 6 kts 122°
2026-04-25 12:39 51.80943 107.44226 1687 ft 6 kts 165°
2026-04-25 12:39 51.80901 107.44243 1686 ft 6 kts 167°
2026-04-25 12:39 51.80857 107.44258 1687 ft 7 kts 168°
2026-04-25 12:39 51.80803 107.44276 1690 ft 9 kts 168°
2026-04-25 12:40 51.80736 107.44298 1684 ft 11 kts 168°
2026-04-25 12:40 51.80685 107.44315 1688 ft 5 kts 168°
2026-04-25 12:40 51.80651 107.44315 1688 ft 5 kts 203°
2026-04-25 12:40 51.80634 107.44267 1684 ft 5 kts 253°
2026-04-25 12:41 51.80624 107.44203 1673 ft 6 kts 256°
2026-04-25 12:41 51.80599 107.44154 1698 ft 6 kts 190°
2026-04-25 12:41 51.80557 107.44164 1683 ft 6 kts 168°
2026-04-25 12:41 51.80524 107.44176 1685 ft 0 kts 168°